TimeEST,TemperatureF,Dew PointF,Humidity,Sea Level PressureIn,VisibilityMPH,Wind Direction,Wind SpeedMPH,Gust SpeedMPH,PrecipitationIn,Events,Conditions,WindDirDegrees,DateUTC
12:52 AM,24.1,19.9,84,30.34,10.0,Calm,Calm,-,N/A,,Clear,0,2012-11-16 05:52:00
1:52 AM,23.0,19.0,85,30.35,10.0,Calm,Calm,-,N/A,,Clear,0,2012-11-16 06:52:00
3:52 AM,24.1,19.0,81,30.34,9.0,Calm,Calm,-,N/A,,Clear,0,2012-11-16 08:52:00
4:52 AM,21.9,18.0,85,30.34,10.0,Calm,Calm,-,N/A,,Clear,0,2012-11-16 09:52:00
5:52 AM,21.0,17.1,85,30.34,10.0,Calm,Calm,-,N/A,,Clear,0,2012-11-16 10:52:00
6:52 AM,21.0,17.1,85,30.35,10.0,Calm,Calm,-,N/A,,Clear,0,2012-11-16 11:52:00
7:52 AM,23.0,19.0,85,30.38,8.0,Calm,Calm,-,N/A,,Clear,0,2012-11-16 12:52:00
8:52 AM,27.0,23.0,85,30.39,9.0,NNW,3.5,-,N/A,,Clear,340,2012-11-16 13:52:00
9:52 AM,28.9,24.1,82,30.39,10.0,West,4.6,-,N/A,,Clear,270,2012-11-16 14:52:00
10:52 AM,32.0,25.0,75,30.38,10.0,Calm,Calm,-,N/A,,Clear,0,2012-11-16 15:52:00
11:52 AM,37.0,25.0,62,30.36,10.0,West,3.5,-,N/A,,Clear,280,2012-11-16 16:52:00
12:52 PM,37.9,25.0,60,30.36,10.0,West,5.8,-,N/A,,Clear,280,2012-11-16 17:52:00
1:52 PM,36.0,24.1,62,30.37,10.0,WNW,6.9,-,N/A,,Clear,290,2012-11-16 18:52:00
2:52 PM,36.0,24.1,62,30.37,10.0,West,6.9,-,N/A,,Clear,260,2012-11-16 19:52:00
3:52 PM,36.0,25.0,64,30.39,10.0,WSW,5.8,-,N/A,,Clear,240,2012-11-16 20:52:00
4:52 PM,32.0,24.1,73,30.40,10.0,Calm,Calm,-,N/A,,Clear,0,2012-11-16 21:52:00
5:52 PM,30.0,24.1,79,30.42,10.0,Calm,Calm,-,N/A,,Clear,0,2012-11-16 22:52:00
6:52 PM,28.9,23.0,78,30.43,10.0,North,3.5,-,N/A,,Clear,360,2012-11-16 23:52:00
7:52 PM,28.0,24.1,85,30.45,9.0,WSW,3.5,-,N/A,,Clear,250,2012-11-17 00:52:00
8:52 PM,27.0,21.9,81,30.47,8.0,West,4.6,-,N/A,,Clear,260,2012-11-17 01:52:00
9:52 PM,27.0,21.9,81,30.48,8.0,Calm,Calm,-,N/A,,Clear,0,2012-11-17 02:52:00
10:52 PM,25.0,21.0,85,30.49,9.0,West,3.5,-,N/A,,Clear,270,2012-11-17 03:52:00
11:52 PM,25.0,21.0,85,30.50,9.0,Calm,Calm,-,N/A,,Clear,0,2012-11-17 04:52:00